Wind_Speed
21 21 21 21 21 18 13 11 10 10 9 8 7 6 5 4 3 2 1 1 2 3 3 4 4 4 4 5 5 6 7 7 8 8 8 8 9 10 10 9 9 8 8 8 7 7 7 7 7
20 19 22 22 20 14 12 12 12 12 10 10 9 8 7 5 4 3 3 2 2 3 4 4 4 4 3 4 5 6 7 8 8 8 8 8 8 9 9 9 8 8 8 7 7 7 7 7 6
20 19 22 22 16 12 11 12 13 12 11 11 10 10 8 7 5 4 4 3 3 3 3 4 4 4 4 5 5 6 7 7 7 8 8 8 8 8 8 8 8 8 7 7 7 7 6 6 5
18 22 23 19 14 12 12 13 13 13 12 12 12 10 9 8 7 5 5 5 4 3 3 4 5 4 5 5 5 6 6 7 7 7 7 7 7 7 8 8 8 8 7 7 7 6 6 5 5
19 22 21 17 14 13 13 13 13 13 13 13 12 11 10 9 8 7 6 6 5 5 4 5 4 4 5 4 5 6 6 6 7 6 6 6 6 6 7 7 7 7 7 6 6 6 6 5 4
19 21 18 14 13 12 13 12 12 13 13 13 14 13 12 11 10 9 8 7 6 5 4 4 4 3 4 3 5 5 6 6 7 6 5 5 6 7 6 7 7 7 6 6 5 5 5 5 4
17 18 15 12 11 12 12 12 12 13 14 14 15 14 13 12 10 10 9 8 7 6 5 4 4 3 3 4 5 5 6 6 6 6 5 5 6 6 7 7 7 6 6 5 5 4 4 3 2
15 15 12 10 10 11 11 11 13 14 14 15 16 15 14 13 11 11 10 10 9 8 7 5 4 3 3 4 4 4 5 6 6 6 6 5 5 5 6 6 6 5 5 5 5 4 3 3 2
13 12 11 8 8 9 10 10 12 13 15 16 16 15 14 14 13 12 11 10 9 9 8 7 6 5 4 3 4 4 4 5 5 6 6 5 5 5 6 6 5 5 4 5 4 3 3 2 1
8 8 6 6 6 7 8 10 12 14 15 15 15 15 15 14 14 13 13 12 10 9 9 8 7 6 5 4 3 4 4 4 4 4 5 4 5 5 5 5 5 4 4 4 4 3 3 2 1
4 3 4 4 5 6 7 9 11 12 13 14 15 15 15 15 15 15 14 13 12 11 10 9 8 6 5 4 3 4 3 4 3 2 3 3 4 4 5 5 5 4 4 4 4 3 3 3 2
1 2 3 3 4 5 6 7 8 9 11 13 14 14 14 15 15 15 15 14 13 12 11 11 10 8 7 5 3 3 3 3 2 2 3 3 3 3 4 4 4 5 4 4 4 3 3 3 3
1 1 2 3 4 4 4 5 7 8 9 11 12 13 14 14 15 15 15 14 14 13 12 12 11 10 9 7 5 3 2 2 2 2 2 2 2 3 3 3 4 4 4 4 4 3 3 3 3
3 2 2 2 3 4 3 4 5 7 8 9 10 12 13 14 14 14 14 14 14 13 13 12 11 11 10 9 7 6 4 3 2 1 1 1 0 1 2 3 3 4 4 4 4 4 3 3 3
3 2 4 4 3 4 4 4 5 6 7 8 9 10 12 12 13 13 14 13 13 13 12 12 11 11 11 10 8 7 6 4 3 2 1 1 1 1 1 2 3 4 4 4 4 4 4 3 3
3 3 5 5 4 5 4 6 8 6 6 7 8 9 10 11 12 12 12 13 12 12 12 11 10 10 10 9 8 7 6 5 4 3 2 1 2 1 1 2 3 3 4 4 4 5 5 4 4
4 6 7 7 5 5 6 6 9 8 7 7 7 8 9 10 10 11 11 12 12 12 11 11 10 10 9 9 9 8 7 6 5 4 3 2 2 2 3 2 2 3 3 4 5 5 6 6 6
7 8 10 9 8 6 7 8 11 9 8 9 8 8 8 9 9 10 10 10 11 11 11 10 10 9 9 9 8 7 7 7 7 5 4 3 3 3 4 3 3 3 4 4 5 6 7 6 6
13 13 12 11 9 7 8 10 12 12 10 10 10 9 9 9 9 9 9 10 10 10 10 10 9 9 9 8 8 6 6 6 7 6 4 3 3 3 4 4 4 3 4 5 6 6 6 6 7
15 15 13 12 11 9 10 11 13 14 12 12 13 11 10 9 10 9 9 9 9 9 9 9 8 8 8 8 8 7 6 6 7 6 5 4 4 3 4 5 4 4 4 5 5 5 5 6 6
15 16 16 16 15 12 11 13 14 14 14 15 14 13 12 10 10 10 9 9 9 9 9 9 9 8 8 8 8 7 7 7 7 7 6 6 5 4 4 5 5 5 5 5 6 6 6 6 6
17 17 18 18 15 14 14 17 16 16 16 17 16 14 13 11 10 10 10 10 10 9 9 9 9 9 9 9 9 8 9 8 8 7 7 6 5 6 6 6 6 6 6 6 7 7 7 7 7
18 17 19 19 17 17 16 16 17 16 17 17 18 16 15 13 12 12 11 11 10 10 10 10 10 9 10 10 10 10 10 10 9 8 7 7 6 7 7 7 7 7 8 7 7 7 7 7 8
19 19 19 17 18 19 16 17 18 17 19 19 18 17 16 17 14 13 13 13 12 11 11 11 11 10 11 11 11 12 11 11 10 9 9 8 8 8 9 9 8 9 9 9 8 8 8 8 9
20 19 19 18 19 20 18 18 20 19 20 21 20 19 19 20 18 16 16 16 15 14 13 13 13 13 12 12 13 13 13 12 12 11 11 10 10 11 11 11 10 10 10 10 10 10 10 9 10
21 21 22 21 21 20 20 21 20 21 21 21 21 20 20 22 21 19 18 18 18 17 16 15 15 15 15 15 15 15 14 14 14 14 14 13 13 13 13 13 13 12 12 12 12 12 11 11 12
22 23 23 24 24 23 22 22 21 23 21 20 20 21 22 24 23 21 21 20 20 19 19 19 18 17 17 17 17 17 16 16 17 17 16 16 16 16 16 15 14 14 14 14 14 14 13 13 13
23 23 22 23 24 24 22 21 24 23 22 23 22 23 24 25 24 24 23 23 22 22 22 22 21 20 19 19 19 19 18 18 18 18 18 18 17 17 18 19 17 17 16 16 15 14 14 14 14
21 23 24 24 24 24 24 24 24 27 26 25 25 26 26 26 25 24 24 25 24 23 24 24 23 22 21 21 21 21 21 20 20 20 20 20 20 20 20 18 19 18 18 17 17 16 16 16 16
22 22 23 25 27 26 26 26 25 28 27 27 27 28 26 27 28 27 27 27 27 26 26 26 26 25 24 23 23 23 23 22 21 22 23 23 23 23 22 21 20 19 19 19 18 18 17 17 17
Wind_Direction
74 72 69 62 54 51 49 46 45 47 50 51 50 52 56 60 69 74 70 99 109 109 108 118 124 124 131 135 141 150 153 150 150 150 141 140 142 139 134 130 128 127 127 126 124 118 117 116 112
77 75 70 61 56 48 43 43 44 45 51 52 50 51 52 56 61 72 77 74 97 103 114 120 127 133 139 140 145 148 152 150 152 150 145 139 137 134 132 131 128 127 126 128 129 124 121 119 116
75 70 66 61 56 46 41 45 44 46 48 51 50 52 52 50 58 71 71 70 82 106 111 120 118 131 139 147 148 146 142 147 147 144 147 146 140 139 138 137 130 125 125 125 128 129 124 122 123
74 66 64 60 52 44 41 42 39 43 46 50 52 51 50 50 54 61 64 67 74 88 96 108 111 125 129 138 141 148 145 149 152 150 152 152 143 142 144 141 134 129 128 129 129 138 132 128 131
71 63 60 56 49 41 40 41 39 41 46 51 55 52 49 51 55 58 62 63 69 79 87 96 102 126 132 140 145 148 151 156 157 157 157 155 153 147 147 148 143 136 136 134 137 140 141 133 130
70 63 57 50 46 41 41 42 40 42 46 49 53 53 52 52 54 57 58 58 64 77 82 85 94 112 133 142 147 151 157 157 158 163 162 158 159 160 157 155 153 145 143 142 145 145 140 141 139
69 67 56 44 40 44 43 42 43 46 47 48 50 51 51 51 53 55 55 59 61 63 69 81 84 95 113 129 133 149 154 154 158 162 160 159 160 159 162 157 156 154 155 152 152 154 153 149 150
74 72 63 44 36 41 43 40 43 47 47 47 47 48 50 51 54 56 55 55 57 61 62 70 77 78 99 113 125 135 143 145 152 157 159 158 162 162 162 159 160 164 164 165 164 163 161 153 156
69 65 63 48 36 40 41 39 42 50 46 46 47 46 47 50 54 55 55 55 56 55 56 65 72 71 81 96 125 132 140 147 158 164 169 172 172 166 165 164 168 169 171 180 184 182 170 166 159
66 64 60 50 39 41 42 39 43 46 43 44 45 45 45 48 51 52 53 55 55 54 52 58 69 73 77 83 112 127 131 132 152 169 175 179 180 178 174 174 180 178 177 189 198 198 197 193 195
81 53 52 44 41 41 33 37 40 42 42 40 43 43 43 45 49 51 52 53 55 54 53 54 57 64 67 70 85 105 114 127 133 150 164 176 182 187 190 189 191 184 186 191 202 213 215 210 220
128 41 38 28 27 44 39 32 34 36 37 36 40 41 43 44 45 47 50 51 51 51 52 51 50 53 56 62 75 98 103 114 124 145 165 164 177 193 200 194 195 199 202 207 210 219 225 226 230
204 331 359 19 12 19 34 26 24 26 30 30 33 38 40 42 44 43 44 47 48 48 49 51 51 51 52 57 61 73 87 100 117 140 156 172 199 207 207 206 209 208 216 222 224 223 230 227 234
220 263 302 338 338 347 5 1 15 15 19 18 25 32 36 37 39 40 40 41 43 44 45 46 49 50 51 56 60 64 71 75 75 86 121 111 278 212 218 216 205 202 212 216 221 224 236 242 253
213 265 290 308 315 311 335 322 341 348 0 3 14 23 27 30 32 35 36 36 38 39 40 41 45 48 49 50 52 55 56 58 61 64 65 66 36 322 232 218 219 213 221 228 232 239 245 250 261
198 257 277 287 286 292 309 308 308 313 339 351 0 12 16 20 22 25 28 30 31 33 35 36 40 42 41 44 48 53 49 47 52 59 67 41 17 357 324 237 235 226 234 243 249 251 255 266 272
234 263 261 260 263 274 292 295 298 302 317 329 343 353 3 6 11 16 20 22 23 24 27 31 36 37 38 39 43 50 45 40 41 39 42 33 19 10 3 322 261 248 258 253 252 257 262 266 270
241 245 254 247 249 256 275 282 286 288 296 306 319 333 341 350 357 3 7 12 16 17 18 23 29 32 31 30 32 41 42 37 36 26 29 32 26 18 9 355 325 278 267 262 258 263 264 266 271
242 238 244 247 244 244 267 273 280 288 286 294 303 312 322 329 334 344 351 357 3 7 11 14 18 22 21 21 19 25 32 29 26 24 21 21 13 11 3 357 348 319 291 279 271 270 268 271 277
246 246 248 250 250 249 254 260 274 281 283 290 295 300 307 313 316 324 335 343 348 354 358 0 1 4 7 6 7 8 16 19 19 19 18 10 3 1 350 348 351 341 319 299 283 279 274 278 282
244 251 252 249 248 241 253 256 258 270 283 283 289 293 297 301 304 307 318 326 330 335 343 345 345 347 350 349 351 355 358 2 7 8 7 4 356 345 343 345 341 336 328 314 297 285 277 281 286
247 248 254 253 249 245 246 260 262 264 267 272 279 285 288 291 296 299 303 312 316 318 325 332 334 336 338 337 339 344 350 349 350 350 352 351 344 336 332 332 331 327 322 317 313 302 290 288 292
248 249 253 254 255 250 248 257 258 261 264 264 268 275 283 283 284 289 293 299 304 306 309 315 319 321 324 326 328 329 335 338 338 340 338 336 331 328 329 329 324 317 315 312 308 308 305 305 301
246 251 257 260 256 255 250 254 264 262 260 263 264 268 277 279 277 283 287 290 292 296 301 303 303 305 310 316 320 321 323 326 326 326 324 320 320 321 318 318 316 313 309 306 301 299 298 301 306
247 250 254 261 263 264 263 257 258 258 259 263 267 265 271 277 276 278 281 282 283 287 290 291 292 295 300 304 308 312 314 316 317 315 313 309 309 311 309 307 307 307 304 301 299 295 295 296 299
244 244 247 253 258 264 264 260 259 258 257 258 263 262 263 271 275 275 277 276 276 278 281 284 287 288 291 294 297 299 303 306 307 307 307 305 302 303 305 304 302 302 302 299 296 292 291 291 291
245 241 244 252 256 259 259 263 266 262 258 261 265 262 262 267 269 269 272 274 273 273 275 279 281 282 284 288 291 291 292 295 298 299 302 301 299 299 298 299 300 296 298 296 291 289 285 286 287
245 243 245 249 256 258 258 260 261 260 259 260 256 257 259 262 265 267 267 270 272 272 273 275 277 279 280 283 286 287 287 289 291 293 296 295 294 294 295 292 294 293 292 292 287 288 283 281 284
248 245 243 246 249 254 259 257 257 261 255 258 260 261 263 265 266 265 267 267 269 271 272 273 275 276 277 278 279 281 284 285 287 288 291 292 292 292 293 292 293 291 292 291 287 286 283 281 281
247 245 247 250 252 251 258 262 258 258 261 260 262 261 263 265 265 266 267 266 266 267 269 271 272 273 274 274 275 277 279 282 282 284 287 288 289 290 291 290 291 289 291 293 290 286 283 282 281
Height
5882 5881 5880 5879 5879 5880 5880 5879 5877 5875 5874 5873 5871 5870 5869 5869 5869 5871 5868 5867 5867 5867 5867 5868 5868 5869 5869 5870 5870 5871 5872 5873 5874 5875 5876 5877 5878 5879 5880 5881 5883 5884 5885 5886 5887 5888 5888 5889 5890
5886 5884 5882 5881 5883 5884 5883 5881 5879 5877 5876 5874 5873 5872 5871 5870 5869 5869 5868 5868 5868 5868 5868 5869 5869 5870 5870 5871 5871 5872 5873 5874 5875 5876 5877 5878 5879 5880 5881 5883 5884 5885 5886 5887 5888 5889 5889 5890 5891
5888 5886 5884 5885 5887 5887 5886 5884 5882 5880 5878 5876 5875 5874 5873 5872 5871 5870 5870 5869 5869 5869 5869 5869 5870 5871 5871 5872 5872 5873 5874 5875 5876 5877 5878 5879 5880 5882 5883 5884 5885 5886 5887 5888 5888 5890 5891 5891 5892
5891 5888 5888 5891 5891 5890 5888 5886 5884 5882 5880 5879 5877 5876 5874 5873 5872 5871 5871 5871 5870 5870 5870 5870 5870 5871 5872 5873 5873 5874 5875 5876 5877 5878 5879 5880 5881 5883 5884 5885 5885 5887 5888 5889 5890 5890 5891 5892 5893
5891 5889 5893 5894 5894 5893 5891 5889 5887 5885 5883 5881 5880 5878 5876 5875 5874 5873 5872 5872 5872 5871 5871 5871 5871 5872 5873 5873 5874 5875 5876 5877 5878 5879 5880 5881 5882 5883 5884 5885 5886 5887 5889 5889 5890 5891 5892 5893 5893
5893 5894 5897 5898 5898 5896 5894 5892 5890 5888 5886 5884 5882 5881 5879 5877 5876 5875 5874 5874 5873 5873 5873 5872 5873 5873 5873 5874 5875 5875 5876 5877 5878 5880 5881 5882 5883 5884 5885 5886 5887 5888 5889 5890 5891 5892 5892 5893 5894
5897 5899 5901 5902 5901 5899 5897 5895 5892 5890 5889 5887 5885 5883 5881 5879 5878 5877 5876 5875 5875 5874 5874 5874 5874 5874 5874 5875 5876 5877 5877 5878 5879 5880 5881 5883 5884 5885 5886 5887 5888 5889 5890 5891 5892 5893 5893 5893 5894
5900 5904 5905 5906 5904 5902 5900 5897 5895 5893 5891 5889 5888 5886 5884 5882 5881 5879 5878 5877 5876 5876 5876 5875 5875 5875 5875 5876 5877 5878 5878 5879 5880 5881 5882 5883 5885 5886 5886 5887 5888 5890 5891 5892 5893 5893 5894 5894 5894
5905 5907 5907 5908 5906 5904 5902 5900 5898 5896 5894 5892 5891 5889 5887 5885 5883 5882 5881 5880 5879 5878 5878 5877 5876 5876 5877 5877 5878 5879 5879 5880 5881 5882 5883 5884 5885 5886 5887 5888 5889 5890 5891 5892 5893 5894 5894 5894 5895
5909 5909 5910 5910 5908 5906 5904 5902 5900 5898 5896 5895 5893 5892 5890 5888 5886 5885 5883 5882 5881 5881 5880 5879 5878 5878 5879 5879 5879 5880 5880 5881 5882 5883 5884 5885 5886 5886 5887 5888 5889 5890 5891 5892 5893 5894 5894 5895 5895
5911 5911 5911 5910 5909 5908 5906 5904 5903 5901 5900 5898 5896 5894 5892 5891 5889 5887 5886 5885 5884 5883 5882 5881 5881 5880 5880 5880 5880 5881 5881 5882 5883 5883 5884 5885 5886 5887 5888 5888 5889 5890 5891 5892 5893 5894 5894 5895 5895
5911 5911 5911 5911 5910 5909 5908 5907 5905 5904 5903 5901 5899 5897 5895 5893 5891 5890 5889 5888 5886 5885 5885 5884 5883 5882 5882 5882 5882 5882 5883 5883 5884 5884 5885 5886 5886 5887 5888 5889 5890 5891 5891 5892 5893 5894 5894 5895 5895
5910 5910 5911 5911 5911 5910 5909 5908 5907 5906 5904 5903 5901 5899 5897 5895 5894 5893 5891 5890 5889 5888 5887 5886 5885 5884 5884 5883 5883 5883 5884 5884 5885 5885 5886 5886 5887 5887 5888 5888 5889 5890 5891 5892 5893 5893 5894 5894 5895
5910 5910 5911 5911 5912 5911 5911 5909 5908 5907 5906 5905 5903 5901 5900 5898 5897 5895 5894 5892 5891 5890 5889 5888 5887 5886 5886 5885 5885 5885 5885 5885 5886 5886 5886 5887 5887 5887 5888 5888 5889 5890 5891 5891 5892 5893 5893 5894 5894
5909 5910 5911 5911 5912 5912 5911 5910 5909 5907 5907 5906 5905 5903 5902 5901 5899 5898 5896 5895 5894 5892 5891 5890 5889 5888 5888 5887 5886 5886 5886 5886 5886 5887 5887 5887 5887 5887 5888 5888 5889 5890 5890 5891 5891 5892 5893 5893 5894
5908 5909 5911 5911 5912 5912 5913 5911 5909 5907 5907 5907 5906 5904 5903 5902 5901 5900 5898 5897 5896 5895 5893 5892 5891 5890 5889 5888 5888 5888 5887 5887 5887 5887 5887 5888 5888 5888 5888 5888 5888 5889 5890 5890 5891 5892 5892 5893 5893
5906 5909 5910 5911 5911 5912 5912 5911 5909 5907 5907 5907 5906 5905 5904 5903 5902 5901 5900 5899 5898 5896 5895 5894 5893 5892 5891 5890 5890 5889 5889 5888 5888 5888 5888 5888 5888 5888 5888 5888 5888 5888 5889 5889 5890 5891 5892 5892 5892
5906 5908 5909 5909 5910 5911 5911 5911 5909 5907 5907 5907 5906 5906 5905 5904 5903 5902 5901 5900 5899 5898 5897 5896 5895 5894 5893 5892 5891 5891 5890 5890 5889 5889 5888 5888 5888 5888 5888 5888 5888 5888 5888 5889 5889 5890 5891 5891 5891
5903 5906 5907 5907 5908 5909 5910 5910 5909 5908 5907 5906 5906 5905 5905 5904 5903 5902 5902 5901 5900 5899 5898 5897 5896 5895 5894 5893 5892 5891 5891 5891 5890 5889 5889 5889 5889 5889 5889 5888 5888 5888 5888 5888 5889 5889 5889 5890 5890
5900 5902 5903 5905 5905 5907 5909 5909 5908 5907 5906 5905 5905 5904 5904 5904 5903 5902 5901 5901 5900 5899 5899 5898 5897 5896 5895 5894 5893 5892 5892 5891 5890 5890 5889 5889 5889 5889 5889 5889 5888 5888 5888 5888 5888 5888 5888 5888 5889
5898 5900 5901 5902 5902 5904 5906 5906 5906 5905 5905 5904 5904 5903 5902 5902 5902 5901 5901 5900 5900 5899 5899 5898 5897 5896 5895 5895 5894 5893 5892 5891 5891 5890 5890 5889 5889 5889 5889 5888 5888 5888 5888 5888 5887 5887 5887 5887 5887
5894 5896 5897 5897 5898 5899 5903 5903 5903 5903 5902 5902 5901 5901 5901 5900 5900 5900 5900 5899 5899 5899 5898 5897 5897 5896 5895 5894 5894 5893 5892 5892 5891 5890 5890 5889 5889 5888 5888 5888 5888 5887 5887 5887 5886 5886 5885 5885 5885
5890 5892 5892 5893 5894 5896 5898 5899 5900 5900 5899 5899 5898 5898 5898 5898 5898 5898 5898 5898 5898 5897 5897 5896 5896 5896 5895 5894 5894 5893 5892 5892 5891 5890 5890 5889 5888 5888 5887 5887 5887 5886 5886 5885 5885 5885 5884 5884 5884
5885 5888 5887 5888 5890 5891 5894 5896 5896 5896 5895 5895 5894 5894 5895 5895 5894 5895 5895 5895 5896 5896 5895 5895 5895 5894 5894 5893 5893 5892 5891 5891 5890 5890 5889 5888 5888 5887 5886 5886 5885 5885 5884 5884 5883 5883 5883 5882 5882
5881 5884 5885 5885 5886 5888 5890 5891 5892 5892 5892 5892 5891 5892 5892 5892 5891 5892 5893 5893 5893 5893 5893 5892 5892 5892 5892 5892 5891 5890 5890 5889 5888 5888 5887 5886 5886 5886 5885 5884 5883 5883 5882 5882 5881 5881 5881 5880 5880
5876 5879 5881 5882 5884 5885 5886 5886 5887 5887 5887 5887 5887 5886 5887 5888 5888 5888 5888 5889 5889 5889 5889 5889 5889 5889 5889 5889 5888 5888 5887 5887 5886 5886 5885 5884 5884 5883 5882 5882 5881 5880 5880 5879 5879 5878 5878 5878 5877
5870 5872 5875 5877 5878 5879 5881 5881 5882 5881 5880 5881 5882 5883 5882 5882 5883 5884 5884 5884 5885 5885 5885 5885 5886 5886 5886 5885 5885 5885 5884 5884 5883 5883 5882 5882 5881 5880 5879 5879 5878 5877 5876 5876 5875 5875 5874 5874 5874
5864 5867 5870 5871 5871 5872 5875 5877 5876 5876 5877 5875 5875 5876 5877 5876 5877 5878 5879 5879 5880 5880 5881 5881 5881 5881 5881 5881 5881 5881 5881 5880 5879 5879 5879 5878 5877 5877 5876 5875 5874 5873 5873 5872 5871 5871 5871 5870 5870
5859 5860 5862 5864 5866 5867 5868 5871 5871 5869 5869 5869 5869 5870 5871 5872 5872 5871 5873 5874 5874 5875 5875 5875 5876 5876 5877 5877 5877 5876 5876 5875 5875 5875 5874 5874 5873 5873 5872 5870 5870 5869 5869 5868 5867 5866 5866 5865 5865
5852 5854 5857 5858 5859 5860 5861 5864 5863 5862 5861 5861 5862 5862 5864 5866 5866 5866 5867 5868 5868 5869 5869 5870 5870 5870 5871 5871 5871 5871 5871 5870 5870 5870 5869 5869 5869 5868 5866 5866 5865 5864 5864 5863 5862 5862 5861 5861 5860